This is the latest recevied weather packets stored in our database for station/object NK7E. If no packets are shown the sender has not sent any weather packets the latest 10 day(s).
| Time | Temp. | Humidity | Pressure | Rain* | Wind** | Luminosity | Snow |
|---|---|---|---|---|---|---|---|
| 1777428316 | 24.44° C | 15% | 1014 hPa | 0 mm | - | 0 W/m² | - |
| 1777427716 | 25° C | 14% | 1013.7 hPa | 0 mm | - | 6 W/m² | - |
| 1777427116 | 25° C | 14% | 1013.8 hPa | 0 mm | - | 16 W/m² | - |
| 1777426515 | 25.56° C | 14% | 1013.7 hPa | 0 mm | - | 32 W/m² | - |
| 1777425915 | 25.56° C | 14% | 1013.7 hPa | 0 mm | - | 40 W/m² | - |
| 1777425315 | 25.56° C | 14% | 1013.7 hPa | 0 mm | - | 62 W/m² | - |
| 1777424715 | 26.11° C | 13% | 1013.9 hPa | 0 mm | - | 89 W/m² | - |
| 1777424116 | 26.11° C | 13% | 1013.9 hPa | 0 mm | - | 97 W/m² | - |
| 1777423515 | 26.11° C | 13% | 1013.8 hPa | 0 mm | - | 126 W/m² | - |
| 1777422915 | 26.67° C | 13% | 1013.9 hPa | 0 mm | - | 146 W/m² | - |
| 1777422316 | 26.67° C | 13% | 1013.7 hPa | 0 mm | - | 151 W/m² | - |
| 1777421715 | 26.67° C | 12% | 1013.8 hPa | 0 mm | - | 160 W/m² | - |
| 1777421115 | 27.22° C | 12% | 1013.6 hPa | 0 mm | - | 200 W/m² | - |
| 1777420516 | 27.22° C | 12% | 1013.5 hPa | 0 mm | - | 233 W/m² | - |
| 1777419915 | 27.22° C | 12% | 1013.5 hPa | 0 mm | - | 264 W/m² | - |
| 1777419315 | 27.22° C | 12% | 1013.6 hPa | 0 mm | - | 303 W/m² | - |
| 1777418715 | 27.22° C | 12% | 1013.7 hPa | 0 mm | - | 268 W/m² | - |
| 1777418115 | 27.78° C | 12% | 1013.9 hPa | 0 mm | - | 316 W/m² | - |
| 1777417516 | 27.78° C | 12% | 1013.8 hPa | 0 mm | - | 399 W/m² | - |
| 1777416915 | 28.33° C | 12% | 1013.9 hPa | 0 mm | - | 395 W/m² | - |
| 1777416316 | 28.33° C | 11% | 1014.1 hPa | 0 mm | - | 501 W/m² | - |
| 1777415715 | 28.33° C | 11% | 1014.2 hPa | 0 mm | - | 481 W/m² | - |
| 1777415118 | 28.89° C | 11% | 1014.1 hPa | 0 mm | - | 493 W/m² | - |
| 1777414517 | 28.33° C | 11% | 1014.1 hPa | 0 mm | - | 665 W/m² | - |
| 1777413917 | 27.78° C | 11% | 1014.2 hPa | 0 mm | - | 581 W/m² | - |
* Rain latest hour (hover to see other rain measurements)
** Current wind speed in m/s (hover to see current wind gust speed)